Location: La Junie
(44.7428°N, 2.1773°E)
Time: 20:19:49
(UTC+00:00)

Cosmos 2034 Rocket - Pass Details

Date: 15 May 2026
Orbit: 956 x 1001 km, 82.9° (Epoch: 8 June)

Event Time Altitude Azimuth Distance (km) Brightness Sun altitude
Exits shadow 21:58:34 34° 186° (S) 1,586 4.7 -21.5°
Maximum altitude 22:01:36 89° 94° (E) 1,004 4.0 -21.8°
Drops below altitude 10° 22:07:58 10° 8° (N) 2,763 7.1 -22.3°
Sets 22:10:29 0° 9° (N) 3,710 7.9 -22.5°
